Location: McFarlands Corners
(41.4117°N, 81.3382°W)
Time: 02:49:23
(UTC+00:00)

Explorer 11/Cluster Stage 4 - All Passes

Search period start: 12 November 2024 00:00
Search period end: 22 November 2024 00:00
Orbit: 464 x 1205 km, 28.8° (Epoch: 11 November)

Date Brightness Start Highest point End Pass type
(mag) Time Alt. Az. Time Alt. Az. Time Alt. Az.
12 Nov - 10:06:21 10° S 10:06:55 10° S 10:07:28 10° SSE visible
12 Nov - 11:52:07 10° SSW 11:53:49 13° S 11:55:29 10° SSE daylight
13 Nov - 09:45:36 10° SSW 09:47:14 12° S 09:48:48 10° SSE visible
13 Nov - 11:32:13 10° SSW 11:34:11 13° S 11:36:04 10° SSE visible
14 Nov - 09:25:13 10° SSW 09:27:32 13° S 09:29:42 10° SE visible
14 Nov - 11:12:14 10° SW 11:14:31 14° S 11:16:39 10° SSE visible
15 Nov - 09:04:53 10° SSW 09:07:48 15° S 09:10:27 10° SE visible
15 Nov - 10:52:13 10° SW 10:54:50 15° S 10:57:13 10° SSE visible
16 Nov - 08:44:35 10° SSW 08:48:02 17° S 08:51:07 10° SE visible
16 Nov - 10:32:08 10° SW 10:35:06 16° S 10:37:46 10° SSE visible
17 Nov - 06:38:54 10° S 06:40:57 12° SSE 06:42:53 10° SE night (unlit)
17 Nov - 08:24:16 10° SW 08:28:14 19° S 08:31:43 10° SE visible
17 Nov - 10:12:01 10° SW 10:15:20 17° S 10:18:17 10° SSE visible
18 Nov - 06:18:02 10° S 06:21:02 13° SSE 06:23:49 10° SE night (unlit)
18 Nov - 08:03:57 10° SW 08:08:23 20° S 08:12:14 10° SE visible
18 Nov - 09:51:53 10° SW 09:55:33 18° S 09:58:46 10° SE visible
19 Nov - 05:57:21 10° SSW 06:01:04 15° SSE 06:04:31 10° SE night (unlit)
19 Nov - 07:43:37 10° SW 07:48:29 22° S 07:52:42 10° SE night (unlit)
19 Nov - 09:31:40 10° SW 09:35:42 20° S 09:39:13 10° SE visible
20 Nov - 05:36:46 10° SSW 05:41:04 17° SSE 05:45:02 10° SE night (unlit)
20 Nov - 07:23:16 10° SW 07:28:33 24° S 07:33:06 10° SE night (unlit)
20 Nov - 09:11:26 10° WSW 09:15:49 21° SSW 09:19:38 10° SE visible
21 Nov - 05:16:15 10° SSW 05:21:02 18° SSE 05:25:26 10° ESE night (unlit)
21 Nov - 07:02:55 10° SW 07:08:33 25° S 07:13:27 10° ESE night (unlit)
21 Nov - 08:51:10 10° WSW 08:55:54 22° SSW 08:59:59 10° SE visible
